[[{"header":{"parameterUnit":"m.s-1","parameterCategory":1,"la1":30.2991,"la2":30.254,"lo1":-89.0895,"lo2":-89.0444,"dy":0.0017,"dx":0.0017,"nx":28,"ny":28,"refTime":"2024-08-28T21:00:00:Z","depth":0,"parameterNumber":2,"parameterNumberName":"U-component_of_WINDS"},"data":[0,0,0,0,0,0,0,0,0,0,0,0,0,0,0,0,0,0,0,0,0,0,0,0,0,0,0,0,0,0,0,0,0,0,0,0,0,0,0,0,0,0,0,0,0,0,0,0,0,0,0,0,0,0,0,0,0,0,-1.7572,-1.7573,0,-1.7616,-1.7617,-1.7617,-1.7606,-1.7605,-1.7604,-1.7603,-1.765,-1.7652,-1.7654,0,0,0,0,0,0,0,0,0,0,0,0,0,-1.748,-1.7482,-1.7572,-1.7573,-1.7573,-1.7616,-1.7617,-1.7617,-1.7606,-1.7605,-1.7604,-1.7603,-1.7649,-1.7652,-1.7654,0,0,0,0,0,0,0,0,0,0,0,0,0,-1.7522,-1.7483,-1.7572,-1.7573,-1.7573,-1.7616,-1.7617,-1.7617,-1.7606,-1.7605,-1.7604,-1.7603,-1.7649,-1.7652,-1.7655,-1.77,0,0,-1.7664,-1.7665,0,0,0,0,0,0,0,0,-1.752,-1.7525,-1.7572,-1.7573,-1.7573,-1.7604,-1.7601,-1.7645,-1.7607,-1.7594,-1.7603,-1.7602,-1.7636,-1.764,-1.7651,-1.7702,-1.7704,-1.7664,-1.7666,-1.7668,-1.7668,0,0,0,0,0,0,0,-1.7517,-1.7523,-1.759,-1.7573,-1.7574,-1.7572,-1.7576,-1.761,-1.7622,-1.7595,-1.7594,-1.7599,-1.7636,-1.7648,-1.7652,-1.7705,-1.7664,-1.7667,-1.7669,-1.767,-1.7794,-1.7795,0,0,0,0,0,0,-1.7513,-1.7521,-1.7588,-1.7591,-1.7543,-1.7574,-1.7579,-1.7596,-1.7621,-1.7624,-1.76,-1.7599,-1.7644,-1.7649,-1.7654,-1.7707,-1.7668,-1.767,-1.7672,-1.7793,-1.7794,-1.7796,0,0,0,0,0,0,-1.7511,-1.7519,-1.7586,-1.7556,-1.7564,-1.7577,-1.7596,-1.7597,-1.7609,-1.7626,-1.7628,-1.761,-1.7643,-1.7649,-1.7688,-1.7709,-1.7672,-1.7675,-1.7791,-1.7793,-1.7795,-1.7816,0,0,0,0,0,0,-1.7509,-1.7519,-1.7535,-1.7556,-1.7566,-1.7619,-1.7597,-1.7599,-1.7614,-1.7612,-1.7636,-1.7638,-1.7642,-1.7684,-1.7691,-1.7713,-1.7677,-1.7789,-1.7792,-1.7794,-1.7813,-1.7818,-1.7823,0,0,0,0,0,-1.7505,-1.754,-1.7536,-1.7544,-1.7587,-1.7621,-1.7626,-1.763,-1.7616,-1.7633,-1.7644,-1.7637,-1.7706,-1.7688,-1.7696,-1.7719,-1.7788,-1.7791,-1.7794,-1.7811,-1.7817,-1.7822,0,0,0,0,0,0,-1.7522,-1.7543,-1.7539,-1.7581,-1.7599,-1.7619,-1.764,-1.7636,-1.7659,-1.7656,-1.7661,-1.7666,-1.7705,-1.7716,-1.7696,-1.7763,-1.7745,-1.775,-1.7755,-1.7761,-1.7765,-1.7761,-1.768,0,0,0,0,0,-1.753,-1.7555,-1.7572,-1.7608,-1.7617,-1.7627,-1.7642,-1.7643,-1.7662,-1.767,-1.7683,-1.7703,-1.7729,-1.7745,-1.777,-1.7815,-1.782,-1.7835,-1.784,-1.7843,-1.7847,-1.7871,-1.7878,-1.7807,-1.7807,-1.7807,0,0,-1.7548,-1.7562,-1.7578,-1.7611,-1.7626,-1.7652,-1.7634,-1.7662,-1.7682,-1.7675,-1.7711,-1.7722,-1.7744,-1.7786,-1.7805,-1.7796,-1.7868,-1.7848,-1.785,-1.7852,-1.7876,-1.7882,-1.7888,-1.7809,-1.7808,-1.7808,0,0,-1.7593,-1.7607,-1.7638,-1.7652,-1.7673,-1.768,-1.7688,-1.7708,-1.7714,-1.7751,-1.7746,-1.777,-1.7815,-1.783,-1.7844,-1.7896,-1.7891,-1.7904,-1.7928,-1.7952,-1.7957,-1.7962,-1.798,-1.7986,-1.7908,-1.7908,-1.7908,0,-1.7612,-1.7651,-1.7654,-1.7683,-1.7698,-1.7692,-1.7723,-1.7738,-1.7766,-1.7777,-1.7767,-1.7822,-1.7837,-1.7881,-1.7894,-1.7906,-1.7914,-1.7901,-1.7956,-1.7961,-1.7966,-1.7983,-1.7989,-1.791,-1.7909,-1.7909,-1.7909,0,-1.7673,-1.77,-1.7723,-1.775,-1.7767,-1.7797,-1.7805,-1.7823,-1.7823,-1.7831,-1.7869,-1.7886,-1.7914,-1.7925,-1.7925,-1.797,-1.7964,-1.7955,-1.7936,-1.7974,-1.799,-1.7996,-1.7912,-1.7911,-1.7911,-1.791,0,0,-1.773,-1.7758,-1.7766,-1.7778,-1.7801,-1.7822,-1.7852,-1.7879,-1.7894,-1.7914,-1.7939,-1.7977,-1.7969,-1.7984,-1.7987,-1.8008,-1.8046,-1.7996,-1.7997,-1.8004,-1.8096,-1.8102,-1.8109,-1.8044,-1.8045,-1.8046,-1.8094,0,-1.7776,-1.7828,-1.7832,-1.7879,-1.7903,-1.7899,-1.7925,-1.7942,-1.795,-1.7973,-1.7983,-1.8009,-1.7997,-1.8006,-1.8026,-1.8037,-1.8065,-1.8034,-1.8067,-1.8068,-1.806,-1.8118,-1.8124,-1.8168,-1.81,-1.8101,-1.8102,0,-1.7837,-1.7858,-1.7908,-1.7927,-1.7938,-1.7961,-1.7985,-1.8007,-1.8027,-1.8032,-1.8049,-1.8049,-1.808,-1.8061,-1.8104,-1.8083,-1.8097,-1.8104,-1.8106,-1.8108,-1.8086,-1.812,-1.8182,-1.8188,-1.8112,-1.8111,-1.8111,0,-1.7872,-1.7913,-1.7948,-1.7958,-1.7982,-1.7998,-1.8009,-1.8028,-1.8043,-1.8065,-1.8075,-1.8101,-1.8115,-1.8135,-1.8142,-1.8127,-1.8184,-1.8166,-1.8189,-1.8189,-1.82,-1.8199,-1.8264,-1.8211,-1.8211,-1.8211,-1.8211,0,-1.7923,-1.7953,-1.7963,-1.7984,-1.8018,-1.8023,-1.8056,-1.8066,-1.8082,-1.8106,-1.8104,-1.8126,-1.8134,-1.8158,-1.8163,-1.8198,-1.8204,-1.8209,-1.821,-1.8208,-1.8208,-1.8217,-1.8213,-1.8213,-1.8212,-1.8212,-1.8212,0,-1.7968,-1.7976,-1.8013,-1.8032,-1.8038,-1.8061,-1.8078,-1.8099,-1.8107,-1.8136,-1.8144,-1.8156,-1.8184,-1.8193,-1.8227,-1.823,-1.827,-1.8269,-1.8263,-1.8263,-1.8285,-1.8282,-1.8357,-1.8367,-1.8308,-1.8309,-1.8309,0,-1.7999,-1.8022,-1.8044,-1.8059,-1.807,-1.8094,-1.811,-1.8116,-1.8132,-1.8156,-1.8174,-1.8201,-1.8223,-1.8267,-1.828,-1.8306,-1.8305,-1.8329,-1.8309,-1.8306,-1.8304,-1.8302,-1.8304,-1.8333,-1.8333,-1.8334,-1.8334,0,-1.8054,-1.8057,-1.8079,-1.8103,-1.8121,-1.8141,-1.8159,-1.8172,-1.818,-1.8199,-1.8226,-1.8243,-1.8277,-1.8304,-1.833,-1.8342,-1.834,-1.8341,-1.8347,-1.8345,-1.834,-1.8342,-1.8272,-1.8339,-1.8338,-1.8338,-1.8338,-1.8337,-1.8093,-1.8112,-1.813,-1.8155,-1.8169,-1.8187,-1.8207,-1.8217,-1.824,-1.8267,-1.8269,-1.8299,-1.8319,-1.8353,-1.8367,-1.839,-1.8383,-1.8393,-1.8395,-1.8397,-1.8399,-1.8338,-1.8395,-1.8395,-1.8395,-1.8395,-1.8395,0,-1.8147,-1.8158,-1.8181,-1.8206,-1.8226,-1.8221,-1.8241,-1.8258,-1.8284,-1.8302,-1.8323,-1.8355,-1.8381,-1.8396,-1.8422,-1.8438,-1.8438,-1.8445,-1.8443,-1.8446,-1.8404,-1.8395,-1.8445,-1.8445,-1.8445,-1.8445,-1.8445,-1.8445,-1.8177,-1.821,-1.8215,-1.8255,-1.8266,-1.8295,-1.8306,-1.8322,-1.8337,-1.8372,-1.8393,-1.8402,-1.8419,-1.8446,-1.847,-1.8474,-1.8483,-1.8491,-1.8494,-1.8454,-1.8449,-1.8444,-1.8436,-1.8493,-1.8493,-1.8534,-1.8534,-1.8535]},{"header":{"parameterUnit":"m.s-1","parameterCategory":1,"la1":30.2991,"la2":30.254,"lo1":-89.0895,"lo2":-89.0444,"dy":0.0017,"dx":0.0017,"nx":28,"ny":28,"refTime":"2024-08-28T21:00:00:Z","depth":0,"parameterNumber":3,"parameterNumberName":"V-component_of_WINDS"},"data":[0,0,0,0,0,0,0,0,0,0,0,0,0,0,0,0,0,0,0,0,0,0,0,0,0,0,0,0,0,0,0,0,0,0,0,0,0,0,0,0,0,0,0,0,0,0,0,0,0,0,0,0,0,0,0,0,0,0,3.1712,3.1713,0,3.1781,3.1782,3.1783,3.1779,3.1778,3.1777,3.1776,3.1844,3.1847,3.185,0,0,0,0,0,0,0,0,0,0,0,0,0,3.1577,3.1579,3.1712,3.1713,3.1714,3.1781,3.1782,3.1783,3.1779,3.1778,3.1777,3.1776,3.1843,3.1847,3.185,0,0,0,0,0,0,0,0,0,0,0,0,0,3.1639,3.158,3.1712,3.172,3.1722,3.1781,3.1782,3.1783,3.178,3.1778,3.1777,3.1775,3.1842,3.1846,3.185,3.1905,0,0,3.1863,3.1865,0,0,0,0,0,0,0,0,3.1636,3.1644,3.1718,3.172,3.1722,3.177,3.1759,3.1824,3.178,3.1758,3.1776,3.1775,3.1821,3.1826,3.1842,3.1908,3.1911,3.1863,3.1866,3.1867,3.1869,0,0,0,0,0,0,0,3.1631,3.1641,3.1739,3.1719,3.1721,3.172,3.1727,3.1771,3.1796,3.1759,3.1759,3.1768,3.1821,3.1839,3.1844,3.1912,3.1863,3.1867,3.1869,3.1871,3.2027,3.2028,0,0,0,0,0,0,3.1626,3.1638,3.1737,3.1741,3.1674,3.1724,3.1732,3.1756,3.1796,3.1801,3.1769,3.1767,3.1832,3.1839,3.1846,3.1913,3.1867,3.1871,3.1874,3.2025,3.2027,3.2029,0,0,0,0,0,0,3.1623,3.1634,3.1734,3.169,3.1702,3.1728,3.1755,3.1758,3.1775,3.1803,3.1807,3.1782,3.1831,3.1841,3.1891,3.1916,3.1873,3.1877,3.2023,3.2026,3.2028,3.2047,0,0,0,0,0,0,3.1619,3.1633,3.1655,3.169,3.1705,3.1778,3.1756,3.176,3.1783,3.1781,3.1817,3.1821,3.1831,3.1885,3.1895,3.1921,3.188,3.2021,3.2024,3.2027,3.2045,3.205,3.2055,0,0,0,0,0,3.1614,3.1657,3.1656,3.1668,3.1732,3.1779,3.1788,3.1799,3.1785,3.1806,3.1824,3.182,3.1911,3.189,3.1901,3.1928,3.2019,3.2023,3.2027,3.2042,3.2049,3.2055,0,0,0,0,0,0,3.1622,3.1661,3.1661,3.1716,3.1745,3.1779,3.1806,3.1806,3.1838,3.1835,3.1847,3.1855,3.1906,3.1922,3.1897,3.1984,3.1963,3.197,3.1971,3.1978,3.1983,3.1978,3.1883,0,0,0,0,0,3.1631,3.1667,3.1699,3.1745,3.1759,3.178,3.1801,3.1808,3.1837,3.1849,3.1871,3.1899,3.1934,3.1957,3.1991,3.2047,3.2055,3.2072,3.2077,3.2081,3.2086,3.2118,3.2126,3.2041,3.2041,3.2041,0,0,3.1648,3.1674,3.1696,3.1747,3.177,3.1807,3.179,3.1829,3.1857,3.1855,3.1904,3.1921,3.1953,3.2007,3.2031,3.2022,3.2111,3.2086,3.2089,3.2092,3.2122,3.213,3.2138,3.2044,3.2043,3.2043,0,0,3.1699,3.1722,3.1764,3.1787,3.1822,3.1836,3.1846,3.1881,3.1892,3.1941,3.1941,3.1973,3.2034,3.2057,3.2077,3.2138,3.2135,3.2149,3.2176,3.2206,3.2213,3.2219,3.2241,3.2249,3.2154,3.2154,3.2154,0,3.1716,3.1772,3.1785,3.1825,3.1847,3.1848,3.189,3.1912,3.1956,3.1971,3.196,3.2037,3.2059,3.2118,3.2133,3.2149,3.2161,3.2144,3.2211,3.2217,3.2223,3.2244,3.2253,3.2155,3.2155,3.2155,3.2155,0,3.1792,3.1831,3.186,3.1903,3.1929,3.197,3.1988,3.2013,3.2017,3.2032,3.2083,3.2109,3.2149,3.2164,3.2168,3.2224,3.2217,3.2209,3.2188,3.2232,3.2252,3.2261,3.2157,3.2157,3.2156,3.2156,0,0,3.1849,3.19,3.191,3.1931,3.197,3.2,3.204,3.208,3.2101,3.2132,3.2166,3.2218,3.2211,3.2233,3.224,3.2267,3.2315,3.2256,3.2257,3.2266,3.2379,3.2385,3.2394,3.2314,3.2315,3.2316,3.2376,0,3.1904,3.1977,3.199,3.2054,3.209,3.2092,3.2127,3.2155,3.2171,3.2203,3.222,3.2257,3.2244,3.2258,3.2285,3.2303,3.2337,3.2299,3.2346,3.2347,3.2337,3.2405,3.2411,3.2466,3.2384,3.2385,3.2386,0,3.1978,3.2011,3.2079,3.2114,3.213,3.2162,3.22,3.2231,3.2262,3.2272,3.2298,3.2302,3.2344,3.2323,3.2381,3.2355,3.2375,3.2387,3.2389,3.2394,3.2369,3.2411,3.2484,3.2492,3.2399,3.2398,3.2397,0,3.2013,3.2075,3.2124,3.2141,3.2183,3.2206,3.2224,3.2254,3.2278,3.2311,3.2326,3.2363,3.2384,3.2413,3.2427,3.241,3.2485,3.2464,3.2494,3.2493,3.2509,3.2508,3.2586,3.2522,3.2522,3.2522,3.2521,0,3.2073,3.2114,3.214,3.217,3.2217,3.2231,3.2276,3.2294,3.2322,3.2355,3.2359,3.239,3.2407,3.2441,3.2452,3.2499,3.2509,3.2517,3.252,3.2517,3.2516,3.253,3.2526,3.2524,3.2523,3.2523,3.2523,0,3.212,3.2139,3.2192,3.2229,3.2239,3.2271,3.2302,3.2331,3.2347,3.2389,3.24,3.2424,3.2464,3.2482,3.2531,3.2538,3.2592,3.2592,3.2582,3.2583,3.2612,3.2609,3.2701,3.2715,3.2642,3.2642,3.2643,0,3.2157,3.2189,3.2229,3.2252,3.2271,3.2308,3.2333,3.2348,3.2373,3.2412,3.2437,3.2477,3.251,3.2574,3.2596,3.2634,3.2634,3.2664,3.264,3.2636,3.2635,3.2633,3.2637,3.2669,3.2669,3.267,3.267,0,3.2221,3.2229,3.2264,3.2303,3.2332,3.2363,3.2393,3.2412,3.2432,3.246,3.2501,3.2527,3.2578,3.2618,3.2657,3.2676,3.2677,3.2678,3.2687,3.2684,3.2677,3.2682,3.2594,3.2676,3.2675,3.2675,3.2675,3.2674,3.2264,3.2293,3.2326,3.2365,3.239,3.2418,3.2448,3.2468,3.2503,3.2546,3.2553,3.2597,3.2629,3.2682,3.2702,3.2737,3.273,3.2742,3.2746,3.2748,3.275,3.2672,3.2744,3.2744,3.2744,3.2744,3.2744,0,3.2328,3.235,3.2386,3.2429,3.2459,3.2458,3.2492,3.2518,3.2557,3.2587,3.262,3.2668,3.2707,3.2733,3.2772,3.2795,3.2797,3.2805,3.2804,3.2808,3.2755,3.2743,3.2804,3.2804,3.2804,3.2804,3.2804,3.2804,3.2365,3.2414,3.2426,3.2488,3.2509,3.2553,3.2572,3.2599,3.2623,3.2676,3.2709,3.2726,3.2754,3.2796,3.2832,3.2839,3.2853,3.2862,3.2869,3.2818,3.2812,3.2806,3.2795,3.2865,3.2866,3.2919,3.292,3.292]}]]